| time (UTC) | temp F | wind direction | speed knots | gust knots | rain 1hr in | rain 24hr in | rain mn in | humidity % | barometer mb |
| 20260507030006 | 54 | 189 | 0.0 | 1.7 | 0.00 | 0.00 | 0.00 | 89 | 1020.5 |
| 20260507025504 | 54 | 199 | 0.0 | 0.0 | 0.00 | 0.00 | 0.00 | 89 | 1020.6 |
| 20260507025005 | 54 | 199 | 0.0 | 1.7 | 0.00 | 0.00 | 0.00 | 89 | 1020.6 |
| 20260507024509 | 54 | 199 | 0.0 | 1.7 | 0.00 | 0.00 | 0.00 | 88 | 1020.6 |
| 20260507024002 | 54 | 196 | 0.9 | 2.6 | 0.00 | 0.00 | 0.00 | 88 | 1020.6 |
| 20260507023502 | 54 | 197 | 0.0 | 2.6 | 0.00 | 0.00 | 0.00 | 89 | 1020.6 |
| 20260507023009 | 54 | 194 | 0.9 | 2.6 | 0.00 | 0.00 | 0.00 | 89 | 1020.6 |
| 20260507022504 | 54 | 190 | 0.9 | 2.6 | 0.00 | 0.00 | 0.00 | 88 | 1020.7 |
| 20260507022005 | 54 | 200 | 0.0 | 1.7 | 0.00 | 0.00 | 0.00 | 88 | 1020.6 |
| 20260507021507 | 54 | 201 | 0.0 | 1.7 | 0.00 | 0.00 | 0.00 | 88 | 1020.6 |
| 20260507021006 | 54 | 201 | 0.0 | 2.6 | 0.00 | 0.00 | 0.00 | 88 | 1020.6 |
| 20260507020503 | 54 | 201 | 0.0 | 2.6 | 0.00 | 0.00 | 0.00 | 87 | 1020.6 |
| 20260507020009 | 54 | 200 | 0.9 | 2.6 | 0.00 | 0.00 | 0.00 | 87 | 1020.6 |
| 20260507015506 | 54 | 202 | 0.0 | 2.6 | 0.00 | 0.00 | 0.00 | 87 | 1020.5 |
| 20260507015004 | 54 | 198 | 0.0 | 2.6 | 0.00 | 0.00 | 0.00 | 87 | 1020.5 |
| 20260507014512 | 54 | 198 | 0.9 | 2.6 | 0.00 | 0.00 | 0.00 | 87 | 1020.5 |
| 20260507014004 | 54 | 196 | 1.7 | 3.5 | 0.00 | 0.00 | 0.00 | 87 | 1020.5 |
| 20260507013505 | 54 | 197 | 1.7 | 3.5 | 0.00 | 0.00 | 0.00 | 86 | 1020.4 |
| 20260507013011 | 54 | 198 | 1.7 | 3.5 | 0.00 | 0.00 | 0.00 | 87 | 1020.5 |
| 20260507012505 | 54 | 202 | 1.7 | 3.5 | 0.00 | 0.00 | 0.00 | 87 | 1020.4 |
| 20260507012004 | 54 | 201 | 0.9 | 2.6 | 0.00 | 0.00 | 0.00 | 87 | 1020.5 |
| 20260507011523 | 54 | 200 | 0.9 | 2.6 | 0.00 | 0.00 | 0.00 | 87 | 1020.5 |
| 20260507011005 | 54 | 201 | 1.7 | 3.5 | 0.00 | 0.00 | 0.00 | 87 | 1020.5 |
| 20260507010507 | 54 | 201 | 0.9 | 3.5 | 0.00 | 0.00 | 0.00 | 87 | 1020.5 |
| 20260507010006 | 54 | 199 | 2.6 | 3.5 | 0.00 | 0.00 | 0.00 | 87 | 1020.6 |
| 20260507005508 | 54 | 198 | 1.7 | 3.5 | 0.00 | 0.00 | 0.00 | 87 | 1020.6 |
| 20260507005003 | 54 | 205 | 1.7 | 3.5 | 0.00 | 0.00 | 0.00 | 87 | 1020.6 |
| 20260507004511 | 54 | 205 | 1.7 | 3.5 | 0.00 | 0.00 | 0.00 | 87 | 1020.7 |
| 20260507004004 | 54 | 206 | 0.9 | 3.5 | 0.00 | 0.00 | 0.00 | 87 | 1020.6 |
| 20260507003504 | 54 | 199 | 1.7 | 3.5 | 0.00 | 0.00 | 0.00 | 87 | 1020.6 |
| 20260507003006 | 54 | 198 | 1.7 | 3.5 | 0.00 | 0.00 | 0.00 | 86 | 1020.6 |
| 20260507002504 | 54 | 196 | 0.9 | 2.6 | 0.00 | 0.00 | 0.00 | 86 | 1020.5 |
| 20260507002004 | 54 | 196 | 1.7 | 3.5 | 0.00 | 0.00 | 0.00 | 87 | 1020.6 |
| 20260507001519 | 54 | 195 | 0.9 | 3.5 | 0.00 | 0.00 | 0.00 | 86 | 1020.6 |
| 20260507001004 | 55 | 200 | 2.6 | 3.5 | 0.00 | 0.00 | 0.00 | 86 | 1020.5 |
| 20260507000505 | 55 | 143 | 0.9 | 3.5 | 0.00 | 0.00 | 0.00 | 86 | 1020.5 |
| 20260507000016 | 55 | 188 | 1.7 | 3.5 | 0.00 | 0.00 | 0.00 | 86 | 1020.5 |
| 20260506235504 | 54 | 196 | 0.9 | 2.6 | 0.00 | 0.00 | 0.00 | 86 | 1020.5 |
| 20260506235004 | 54 | 174 | 0.9 | 2.6 | 0.00 | 0.00 | 0.00 | 86 | 1020.6 |
| 20260506234512 | 54 | 203 | 0.9 | 3.5 | 0.00 | 0.00 | 0.00 | 87 | 1020.6 |
| 20260506234006 | 54 | 202 | 0.9 | 3.5 | 0.00 | 0.00 | 0.00 | 86 | 1020.6 |
| 20260506233504 | 54 | 202 | 1.7 | 3.5 | 0.00 | 0.00 | 0.00 | 86 | 1020.5 |
| 20260506233012 | 54 | 201 | 0.9 | 2.6 | 0.00 | 0.00 | 0.00 | 87 | 1020.5 |
| 20260506232505 | 55 | 201 | 0.9 | 2.6 | 0.00 | 0.00 | 0.00 | 87 | 1020.6 |
| 20260506232003 | 54 | 198 | 0.0 | 3.5 | 0.00 | 0.00 | 0.00 | 86 | 1020.6 |
| 20260506231515 | 54 | 197 | 0.9 | 3.5 | 0.00 | 0.00 | 0.00 | 87 | 1020.6 |
| 20260506231006 | 54 | 197 | 1.7 | 3.5 | 0.00 | 0.00 | 0.00 | 85 | 1020.6 |
| 20260506230505 | 54 | 194 | 2.6 | 3.5 | 0.00 | 0.00 | 0.00 | 86 | 1020.6 |
| 20260506230010 | 54 | 213 | 1.7 | 3.5 | 0.00 | 0.00 | 0.00 | 86 | 1020.6 |
| 20260506225508 | 55 | 200 | 0.9 | 3.5 | 0.00 | 0.00 | 0.00 | 85 | 1020.6 |
| 20260506225006 | 55 | 203 | 0.9 | 5.2 | 0.00 | 0.00 | 0.00 | 85 | 1020.6 |
| 20260506224517 | 55 | 213 | 1.7 | 5.2 | 0.00 | 0.00 | 0.00 | 85 | 1020.6 |
| 20260506224005 | 55 | 217 | 1.7 | 5.2 | 0.00 | 0.00 | 0.00 | 85 | 1020.6 |
| 20260506223505 | 55 | 206 | 1.7 | 3.5 | 0.00 | 0.00 | 0.00 | 86 | 1020.7 |
| 20260506223018 | 55 | 213 | 1.7 | 4.3 | 0.00 | 0.00 | 0.00 | 86 | 1020.7 |
| 20260506222504 | 55 | 214 | 1.7 | 5.2 | 0.00 | 0.00 | 0.00 | 87 | 1020.6 |
| 20260506222007 | 55 | 227 | 2.6 | 5.2 | 0.00 | 0.00 | 0.00 | 86 | 1020.7 |
| 20260506221518 | 54 | 200 | 2.6 | 5.2 | 0.00 | 0.00 | 0.00 | 86 | 1020.7 |
| 20260506221003 | 54 | 200 | 2.6 | 5.2 | 0.00 | 0.00 | 0.00 | 86 | 1020.7 |
| 20260506220504 | 54 | 197 | 3.5 | 5.2 | 0.00 | 0.00 | 0.00 | 86 | 1020.7 |
| 20260506220016 | 54 | 196 | 3.5 | 5.2 | 0.00 | 0.00 | 0.00 | 87 | 1020.8 |
| 20260506215506 | 55 | 200 | 2.6 | 5.2 | 0.00 | 0.00 | 0.00 | 87 | 1020.7 |
| 20260506215004 | 54 | 200 | 3.5 | 5.2 | 0.00 | 0.00 | 0.00 | 86 | 1020.8 |
| 20260506214514 | 54 | 206 | 2.6 | 4.3 | 0.00 | 0.00 | 0.00 | 86 | 1020.8 |
| 20260506214007 | 55 | 195 | 3.5 | 5.2 | 0.00 | 0.00 | 0.00 | 86 | 1020.8 |
| 20260506213506 | 55 | 202 | 3.5 | 5.2 | 0.00 | 0.00 | 0.00 | 86 | 1020.7 |
| 20260506213015 | 55 | 196 | 2.6 | 6.1 | 0.00 | 0.00 | 0.00 | 87 | 1020.7 |
| 20260506212507 | 54 | 205 | 2.6 | 6.1 | 0.00 | 0.00 | 0.00 | 87 | 1020.7 |
| 20260506212010 | 54 | 203 | 3.5 | 6.1 | 0.00 | 0.00 | 0.00 | 87 | 1020.8 |
| 20260506211517 | 54 | 215 | 3.5 | 6.1 | 0.00 | 0.00 | 0.00 | 87 | 1020.8 |
| 20260506211006 | 54 | 192 | 3.5 | 6.1 | 0.00 | 0.00 | 0.00 | 87 | 1020.8 |
| 20260506210503 | 54 | 215 | 4.3 | 6.1 | 0.00 | 0.00 | 0.00 | 87 | 1020.8 |
| 20260506210024 | 54 | 198 | 3.5 | 6.1 | 0.00 | 0.00 | 0.00 | 86 | 1020.8 |
| 20260506205505 | 54 | 198 | 3.5 | 6.1 | 0.00 | 0.00 | 0.00 | 86 | 1020.8 |
| 20260506205010 | 55 | 202 | 3.5 | 6.1 | 0.00 | 0.00 | 0.00 | 86 | 1020.8 |
| 20260506204520 | 55 | 205 | 4.3 | 6.1 | 0.00 | 0.00 | 0.00 | 87 | 1020.7 |
| 20260506204006 | 55 | 217 | 4.3 | 6.1 | 0.00 | 0.00 | 0.00 | 88 | 1020.7 |
| 20260506203505 | 55 | 196 | 3.5 | 6.1 | 0.00 | 0.00 | 0.00 | 87 | 1020.7 |
| 20260506203019 | 55 | 194 | 4.3 | 7.0 | 0.00 | 0.00 | 0.00 | 88 | 1020.7 |
| 20260506202507 | 55 | 192 | 4.3 | 7.0 | 0.00 | 0.00 | 0.00 | 87 | 1020.7 |
| 20260506202007 | 55 | 207 | 3.5 | 7.0 | 0.00 | 0.00 | 0.00 | 88 | 1020.6 |
| 20260506201523 | 55 | 205 | 4.3 | 7.0 | 0.00 | 0.00 | 0.00 | 89 | 1020.6 |
| 20260506201007 | 54 | 196 | 4.3 | 7.0 | 0.00 | 0.00 | 0.00 | 90 | 1020.6 |
| 20260506200510 | 53 | 188 | 4.3 | 7.0 | 0.00 | 0.00 | 0.00 | 89 | 1020.6 |
| 20260506200015 | 53 | 196 | 3.5 | 7.0 | 0.00 | 0.00 | 0.00 | 89 | 1020.7 |
| 20260506195508 | 53 | 193 | 4.3 | 7.8 | 0.00 | 0.00 | 0.00 | 90 | 1020.7 |
| 20260506195011 | 53 | 209 | 4.3 | 7.8 | 0.00 | 0.00 | 0.00 | 90 | 1020.7 |
| 20260506194516 | 53 | 200 | 5.2 | 7.0 | 0.00 | 0.00 | 0.00 | 89 | 1020.6 |
| 20260506194009 | 53 | 221 | 4.3 | 7.0 | 0.00 | 0.00 | 0.00 | 90 | 1020.6 |
| 20260506193507 | 54 | 196 | 4.3 | 7.0 | 0.00 | 0.00 | 0.00 | 89 | 1020.5 |
| 20260506193024 | 54 | 221 | 4.3 | 7.0 | 0.00 | 0.00 | 0.00 | 89 | 1020.5 |
| 20260506192507 | 54 | 197 | 3.5 | 7.8 | 0.00 | 0.00 | 0.00 | 90 | 1020.4 |
| 20260506192012 | 54 | 190 | 4.3 | 8.7 | 0.00 | 0.00 | 0.00 | 90 | 1020.5 |
| 20260506191523 | 54 | 191 | 5.2 | 8.7 | 0.00 | 0.00 | 0.00 | 90 | 1020.4 |
| 20260506191007 | 54 | 190 | 5.2 | 7.8 | 0.00 | 0.00 | 0.00 | 90 | 1020.5 |
| 20260506190507 | 54 | 204 | 4.3 | 7.8 | 0.00 | 0.00 | 0.00 | 90 | 1020.4 |
| 20260506190024 | 54 | 199 | 6.1 | 7.8 | 0.00 | 0.00 | 0.00 | 90 | 1020.3 |
| 20260506185510 | 54 | 5.2 | 7.8 | 0.00 | 0.00 | 0.00 | 91 | 1020.4 | |
| 20260506185007 | 54 | 191 | 5.2 | 7.8 | 0.00 | 0.00 | 0.00 | 92 | 1020.3 |
| 20260506184526 | 53 | 197 | 5.2 | 8.7 | 0.00 | 0.00 | 0.00 | 92 | 1020.3 |
| 20260506184009 | 53 | 208 | 5.2 | 8.7 | 0.00 | 0.00 | 0.00 | 91 | 1020.3 |
| 20260506183507 | 54 | 199 | 6.1 | 8.7 | 0.00 | 0.00 | 0.00 | 91 | 1020.3 |
| 20260506183022 | 54 | 202 | 5.2 | 8.7 | 0.00 | 0.00 | 0.00 | 91 | 1020.3 |
| 20260506182507 | 54 | 194 | 5.2 | 7.8 | 0.00 | 0.00 | 0.00 | 92 | 1020.3 |
| 20260506182011 | 54 | 200 | 4.3 | 8.7 | 0.00 | 0.00 | 0.00 | 92 | 1020.2 |
| 20260506181520 | 53 | 200 | 3.5 | 8.7 | 0.00 | 0.00 | 0.00 | 93 | 1020.1 |
| 20260506181009 | 53 | 212 | 6.1 | 9.6 | 0.00 | 0.00 | 0.00 | 93 | 1020.1 |
| 20260506180509 | 53 | 195 | 5.2 | 9.6 | 0.00 | 0.00 | 0.00 | 93 | 1020.2 |
| 20260506180028 | 53 | 190 | 4.3 | 7.8 | 0.00 | 0.00 | 0.00 | 93 | 1020.2 |
| 20260506175507 | 53 | 195 | 4.3 | 7.0 | 0.00 | 0.00 | 0.00 | 93 | 1020.2 |
| 20260506175012 | 53 | 201 | 3.5 | 6.1 | 0.00 | 0.00 | 0.00 | 93 | 1020.2 |
| 20260506174522 | 53 | 205 | 2.6 | 6.1 | 0.00 | 0.00 | 0.00 | 93 | 1020.2 |
| 20260506174008 | 53 | 212 | 3.5 | 7.0 | 0.00 | 0.00 | 0.00 | 94 | 1020.2 |
| 20260506173509 | 53 | 198 | 3.5 | 7.0 | 0.00 | 0.00 | 0.00 | 94 | 1019.9 |
| 20260506173021 | 52 | 219 | 3.5 | 7.8 | 0.00 | 0.00 | 0.00 | 94 | 1019.7 |
| 20260506172509 | 52 | 199 | 4.3 | 7.8 | 0.00 | 0.00 | 0.00 | 94 | 1019.7 |
| 20260506172009 | 52 | 195 | 4.3 | 7.0 | 0.00 | 0.00 | 0.00 | 94 | 1019.8 |
| 20260506171529 | 52 | 204 | 4.3 | 7.8 | 0.00 | 0.00 | 0.00 | 94 | 1019.9 |
| 20260506171008 | 52 | 199 | 4.3 | 7.8 | 0.00 | 0.00 | 0.00 | 94 | 1020.0 |
| 20260506170509 | 52 | 194 | 4.3 | 7.8 | 0.00 | 0.00 | 0.00 | 94 | 1020.1 |
| 20260506170029 | 52 | 188 | 4.3 | 8.7 | 0.00 | 0.00 | 0.00 | 94 | 1020.1 |
| 20260506165508 | 52 | 197 | 4.3 | 8.7 | 0.00 | 0.00 | 0.00 | 95 | 1020.0 |
| 20260506165007 | 52 | 209 | 4.3 | 7.8 | 0.00 | 0.00 | 0.00 | 95 | 1020.0 |
| 20260506164525 | 52 | 196 | 5.2 | 7.8 | 0.00 | 0.00 | 0.00 | 95 | 1019.9 |
| 20260506164007 | 52 | 179 | 4.3 | 6.1 | 0.00 | 0.00 | 0.00 | 95 | 1020.0 |
| 20260506163511 | 52 | 200 | 4.3 | 7.0 | 0.00 | 0.00 | 0.00 | 95 | 1020.0 |
| 20260506163031 | 52 | 203 | 5.2 | 7.0 | 0.00 | 0.00 | 0.00 | 95 | 1020.2 |
| 20260506162508 | 52 | 201 | 4.3 | 7.8 | 0.00 | 0.00 | 0.00 | 95 | 1020.1 |
| 20260506162009 | 52 | 201 | 4.3 | 8.7 | 0.00 | 0.00 | 0.00 | 95 | 1020.0 |
| 20260506161527 | 52 | 200 | 5.2 | 8.7 | 0.00 | 0.00 | 0.00 | 95 | 1020.0 |
| 20260506161010 | 52 | 203 | 6.1 | 7.8 | 0.00 | 0.00 | 0.00 | 95 | 1019.9 |
| 20260506160513 | 52 | 211 | 5.2 | 7.8 | 0.00 | 0.00 | 0.00 | 95 | 1019.9 |
| 20260506160025 | 52 | 194 | 3.5 | 7.0 | 0.00 | 0.00 | 0.00 | 95 | 1019.8 |
| 20260506155504 | 52 | 207 | 4.3 | 7.8 | 0.00 | 0.00 | 0.00 | 95 | 1019.7 |
| 20260506155006 | 52 | 196 | 4.3 | 7.8 | 0.00 | 0.00 | 0.00 | 94 | 1019.5 |
| 20260506154513 | 52 | 196 | 4.3 | 7.8 | 0.00 | 0.00 | 0.00 | 94 | 1019.3 |
| 20260506154004 | 52 | 217 | 5.2 | 7.8 | 0.00 | 0.00 | 0.00 | 94 | 1019.3 |
| 20260506153503 | 52 | 202 | 4.3 | 8.7 | 0.00 | 0.00 | 0.00 | 94 | 1019.3 |
| 20260506153009 | 52 | 200 | 5.2 | 8.7 | 0.00 | 0.00 | 0.00 | 94 | 1019.4 |
| 20260506152504 | 52 | 196 | 5.2 | 7.8 | 0.00 | 0.00 | 0.00 | 94 | 1019.3 |
| 20260506152007 | 52 | 190 | 5.2 | 9.6 | 0.00 | 0.00 | 0.00 | 94 | 1019.4 |
| 20260506151517 | 52 | 213 | 5.2 | 9.6 | 0.00 | 0.00 | 0.00 | 94 | 1019.4 |
| 20260506151004 | 52 | 216 | 5.2 | 8.7 | 0.00 | 0.00 | 0.00 | 94 | 1019.4 |
| 20260506150505 | 52 | 186 | 6.1 | 8.7 | 0.00 | 0.00 | 0.00 | 94 | 1019.5 |
| 20260506150014 | 52 | 210 | 4.3 | 8.7 | 0.00 | 0.00 | 0.00 | 94 | 1019.5 |
| 20260506145502 | 52 | 196 | 4.3 | 8.7 | 0.00 | 0.00 | 0.00 | 94 | 1019.7 |
| 20260506145004 | 52 | 205 | 6.1 | 8.7 | 0.00 | 0.00 | 0.00 | 94 | 1019.8 |
| 20260506144512 | 52 | 194 | 5.2 | 7.8 | 0.00 | 0.00 | 0.00 | 94 | 1019.5 |
| 20260506144010 | 52 | 226 | 5.2 | 7.8 | 0.00 | 0.00 | 0.00 | 94 | 1019.3 |
| 20260506143504 | 52 | 147 | 4.3 | 7.8 | 0.00 | 0.00 | 0.00 | 94 | 1019.2 |
| 20260506143022 | 52 | 212 | 5.2 | 7.8 | 0.00 | 0.00 | 0.00 | 95 | 1019.1 |
| 20260506142511 | 52 | 194 | 4.3 | 8.7 | 0.00 | 0.00 | 0.00 | 95 | 1019.1 |
| 20260506142008 | 52 | 205 | 5.2 | 8.7 | 0.00 | 0.00 | 0.00 | 95 | 1019.3 |
| 20260506141530 | 52 | 199 | 5.2 | 7.8 | 0.00 | 0.00 | 0.00 | 95 | 1019.2 |
| 20260506141011 | 52 | 207 | 5.2 | 7.8 | 0.00 | 0.00 | 0.00 | 95 | 1019.2 |
| 20260506140504 | 52 | 197 | 4.3 | 8.7 | 0.00 | 0.00 | 0.00 | 95 | 1019.2 |
| 20260506140008 | 52 | 215 | 5.2 | 8.7 | 0.00 | 0.00 | 0.00 | 95 | 1019.2 |
| 20260506135507 | 52 | 197 | 6.1 | 9.6 | 0.00 | 0.00 | 0.00 | 95 | 1019.0 |
| 20260506135009 | 52 | 192 | 6.1 | 9.6 | 0.00 | 0.00 | 0.00 | 95 | 1019.0 |
| 20260506134524 | 52 | 192 | 6.1 | 8.7 | 0.00 | 0.00 | 0.00 | 95 | 1018.9 |
| 20260506134008 | 52 | 198 | 5.2 | 8.7 | 0.00 | 0.00 | 0.00 | 95 | 1019.0 |
| 20260506133507 | 52 | 205 | 6.1 | 8.7 | 0.00 | 0.00 | 0.00 | 95 | 1019.0 |
| 20260506133018 | 52 | 207 | 4.3 | 7.8 | 0.00 | 0.00 | 0.00 | 95 | 1019.1 |
| 20260506132506 | 52 | 202 | 4.3 | 7.8 | 0.00 | 0.00 | 0.00 | 95 | 1019.1 |
| 20260506132008 | 52 | 194 | 4.3 | 7.8 | 0.00 | 0.00 | 0.00 | 95 | 1019.1 |
| 20260506131527 | 52 | 201 | 6.1 | 8.7 | 0.00 | 0.00 | 0.00 | 95 | 1018.8 |
| 20260506131007 | 52 | 191 | 6.1 | 7.8 | 0.00 | 0.00 | 0.00 | 95 | 1018.9 |
| 20260506130507 | 52 | 202 | 4.3 | 7.0 | 0.00 | 0.00 | 0.00 | 95 | 1018.9 |
| 20260506130015 | 51 | 205 | 5.2 | 7.0 | 0.00 | 0.00 | 0.00 | 95 | 1018.9 |
| 20260506125503 | 51 | 199 | 4.3 | 7.0 | 0.00 | 0.00 | 0.00 | 95 | 1018.8 |
| 20260506125004 | 52 | 210 | 4.3 | 7.0 | 0.00 | 0.00 | 0.00 | 95 | 1018.7 |
| 20260506124503 | 51 | 202 | 4.3 | 7.0 | 0.00 | 0.00 | 0.00 | 95 | 1018.5 |
| 20260506124003 | 51 | 205 | 4.3 | 7.0 | 0.00 | 0.00 | 0.00 | 95 | 1018.6 |
| 20260506123503 | 51 | 198 | 4.3 | 7.0 | 0.00 | 0.00 | 0.00 | 95 | 1018.5 |
| 20260506123007 | 51 | 200 | 3.5 | 6.1 | 0.00 | 0.00 | 0.00 | 95 | 1018.5 |
| 20260506122504 | 51 | 194 | 3.5 | 6.1 | 0.00 | 0.00 | 0.00 | 95 | 1018.5 |
| 20260506122003 | 51 | 199 | 3.5 | 4.3 | 0.00 | 0.00 | 0.00 | 95 | 1018.6 |
| 20260506121510 | 51 | 188 | 2.6 | 5.2 | 0.00 | 0.00 | 0.00 | 95 | 1018.6 |
| 20260506121003 | 51 | 198 | 2.6 | 5.2 | 0.00 | 0.00 | 0.00 | 95 | 1018.6 |
| 20260506120506 | 51 | 201 | 2.6 | 4.3 | 0.00 | 0.00 | 0.00 | 95 | 1018.5 |
| 20260506120004 | 51 | 203 | 2.6 | 4.3 | 0.00 | 0.00 | 0.00 | 95 | 1018.5 |
| 20260506115507 | 51 | 198 | 2.6 | 4.3 | 0.00 | 0.00 | 0.00 | 95 | 1018.5 |
| 20260506115002 | 51 | 200 | 0.9 | 3.5 | 0.00 | 0.00 | 0.00 | 95 | 1018.5 |
| 20260506114504 | 51 | 199 | 1.7 | 4.3 | 0.00 | 0.00 | 0.00 | 95 | 1018.5 |
| 20260506114005 | 51 | 209 | 1.7 | 4.3 | 0.00 | 0.00 | 0.00 | 95 | 1018.4 |
| 20260506113504 | 51 | 186 | 1.7 | 3.5 | 0.00 | 0.00 | 0.00 | 95 | 1018.4 |
| 20260506113005 | 51 | 200 | 1.7 | 3.5 | 0.00 | 0.00 | 0.00 | 95 | 1018.4 |
| 20260506112503 | 51 | 201 | 1.7 | 4.3 | 0.00 | 0.00 | 0.00 | 95 | 1018.3 |
| 20260506112003 | 51 | 199 | 2.6 | 4.3 | 0.00 | 0.00 | 0.00 | 95 | 1018.3 |
| 20260506111503 | 51 | 204 | 2.6 | 6.1 | 0.00 | 0.00 | 0.00 | 95 | 1018.2 |
| 20260506111004 | 51 | 200 | 3.5 | 6.1 | 0.00 | 0.00 | 0.00 | 95 | 1018.2 |
| 20260506110504 | 51 | 193 | 4.3 | 7.0 | 0.00 | 0.00 | 0.00 | 95 | 1018.2 |
| 20260506110020 | 51 | 202 | 3.5 | 7.0 | 0.00 | 0.00 | 0.00 | 95 | 1018.1 |
| 20260506105503 | 51 | 208 | 3.5 | 7.0 | 0.00 | 0.00 | 0.00 | 95 | 1018.1 |
| 20260506105005 | 51 | 198 | 4.3 | 7.0 | 0.00 | 0.00 | 0.00 | 95 | 1017.9 |
| 20260506104510 | 51 | 188 | 3.5 | 7.0 | 0.00 | 0.00 | 0.00 | 95 | 1017.9 |
| 20260506104003 | 51 | 202 | 4.3 | 7.0 | 0.00 | 0.00 | 0.00 | 95 | 1017.9 |
| 20260506103504 | 51 | 175 | 3.5 | 7.0 | 0.00 | 0.00 | 0.00 | 95 | 1018.0 |
| 20260506103010 | 51 | 205 | 4.3 | 7.0 | 0.00 | 0.00 | 0.00 | 95 | 1017.9 |
| 20260506102507 | 51 | 217 | 3.5 | 7.0 | 0.00 | 0.00 | 0.00 | 95 | 1017.8 |
| 20260506102002 | 51 | 185 | 3.5 | 5.2 | 0.00 | 0.00 | 0.00 | 95 | 1017.7 |
| 20260506101506 | 51 | 188 | 2.6 | 6.1 | 0.00 | 0.00 | 0.00 | 95 | 1017.7 |
| 20260506101006 | 51 | 221 | 1.7 | 6.1 | 0.00 | 0.00 | 0.00 | 95 | 1017.7 |
| 20260506100503 | 51 | 182 | 1.7 | 6.1 | 0.00 | 0.00 | 0.00 | 95 | 1017.6 |
| 20260506100004 | 51 | 211 | 1.7 | 4.3 | 0.00 | 0.00 | 0.00 | 95 | 1017.7 |
| 20260506095506 | 51 | 205 | 0.9 | 4.3 | 0.00 | 0.00 | 0.00 | 95 | 1017.7 |
| 20260506095004 | 51 | 198 | 1.7 | 4.3 | 0.00 | 0.00 | 0.00 | 94 | 1017.7 |
| 20260506094514 | 51 | 188 | 1.7 | 4.3 | 0.00 | 0.00 | 0.00 | 94 | 1017.7 |
| 20260506094004 | 51 | 162 | 0.9 | 3.5 | 0.00 | 0.00 | 0.00 | 94 | 1017.6 |
| 20260506093503 | 51 | 148 | 0.9 | 4.3 | 0.00 | 0.00 | 0.00 | 94 | 1017.6 |
| 20260506093021 | 51 | 187 | 1.7 | 4.3 | 0.00 | 0.00 | 0.00 | 95 | 1017.5 |
| 20260506092504 | 51 | 175 | 1.7 | 4.3 | 0.00 | 0.00 | 0.00 | 95 | 1017.5 |
| 20260506092005 | 52 | 194 | 0.9 | 4.3 | 0.00 | 0.00 | 0.00 | 95 | 1017.6 |
| 20260506091516 | 52 | 187 | 1.7 | 4.3 | 0.00 | 0.00 | 0.00 | 95 | 1017.6 |
| 20260506091005 | 52 | 182 | 1.7 | 4.3 | 0.00 | 0.00 | 0.00 | 95 | 1017.6 |
| 20260506090504 | 51 | 159 | 1.7 | 4.3 | 0.00 | 0.00 | 0.00 | 95 | 1017.6 |
| 20260506090011 | 51 | 179 | 0.9 | 4.3 | 0.00 | 0.00 | 0.00 | 95 | 1017.6 |
| 20260506085504 | 51 | 176 | 1.7 | 4.3 | 0.00 | 0.00 | 0.00 | 95 | 1017.6 |
| 20260506085003 | 51 | 161 | 0.0 | 1.7 | 0.00 | 0.00 | 0.00 | 95 | 1017.5 |
| 20260506084511 | 51 | 154 | 0.0 | 0.0 | 0.00 | 0.00 | 0.00 | 95 | 1017.4 |
| 20260506084007 | 51 | 154 | 0.0 | 0.0 | 0.00 | 0.00 | 0.00 | 95 | 1017.4 |
| 20260506083504 | 51 | 154 | 0.0 | 0.0 | 0.00 | 0.00 | 0.00 | 95 | 1017.4 |
| 20260506083005 | 51 | 154 | 0.0 | 0.0 | 0.00 | 0.00 | 0.00 | 95 | 1017.4 |
| 20260506082508 | 51 | 154 | 0.0 | 0.0 | 0.00 | 0.00 | 0.00 | 94 | 1017.3 |
| 20260506082003 | 51 | 154 | 0.0 | 0.0 | 0.00 | 0.00 | 0.00 | 94 | 1017.2 |
| 20260506081505 | 52 | 154 | 0.0 | 0.0 | 0.00 | 0.00 | 0.00 | 94 | 1017.1 |
| 20260506081004 | 52 | 154 | 0.0 | 0.0 | 0.00 | 0.00 | 0.00 | 94 | 1017.0 |
| 20260506080503 | 52 | 154 | 0.0 | 0.0 | 0.00 | 0.00 | 0.00 | 94 | 1016.9 |
| 20260506073505 | 52 | 154 | 0.0 | 0.9 | 0.00 | 0.00 | 0.00 | 94 | 1016.7 |
| 20260506073030 | 53 | 154 | 0.0 | 1.7 | 0.00 | 0.00 | 0.00 | 94 | 1016.7 |
| 20260506072504 | 53 | 154 | 0.0 | 1.7 | 0.00 | 0.00 | 0.00 | 94 | 1016.7 |
| 20260506072003 | 53 | 154 | 0.0 | 0.9 | 0.00 | 0.00 | 0.00 | 93 | 1016.7 |
| 20260506071514 | 53 | 154 | 0.0 | 0.9 | 0.00 | 0.00 | 0.00 | 93 | 1016.6 |
| 20260506071006 | 53 | 154 | 0.0 | 0.9 | 0.00 | 0.00 | 0.00 | 93 | 1016.6 |
| 20260506070503 | 53 | 154 | 0.0 | 0.9 | 0.00 | 0.00 | 0.00 | 94 | 1016.6 |
| 20260506062505 | 53 | 154 | 0.0 | 0.0 | 0.00 | 0.00 | 0.00 | 93 | 1016.4 |
| 20260506062003 | 54 | 154 | 0.0 | 0.0 | 0.00 | 0.00 | 0.00 | 93 | 1016.4 |
| 20260506061524 | 54 | 154 | 0.0 | 0.0 | 0.00 | 0.00 | 0.00 | 93 | 1016.4 |
| 20260506061002 | 54 | 154 | 0.0 | 0.0 | 0.00 | 0.00 | 0.00 | 93 | 1016.3 |
| 20260506060504 | 54 | 154 | 0.0 | 0.0 | 0.00 | 0.00 | 0.00 | 93 | 1016.2 |
| 20260506051007 | 54 | 154 | 0.0 | 0.0 | 0.00 | 0.00 | 0.00 | 92 | 1015.6 |
| 20260506050506 | 54 | 154 | 0.0 | 0.0 | 0.00 | 0.00 | 0.00 | 92 | 1015.5 |
| 20260506045008 | 54 | 154 | 0.0 | 0.0 | 0.00 | 0.00 | 0.00 | 91 | 1015.4 |
| 20260506044557 | 54 | 154 | 0.0 | 0.0 | 0.00 | 0.00 | 0.00 | 91 | 1015.4 |
| 20260506044006 | 54 | 154 | 0.0 | 0.9 | 0.00 | 0.00 | 0.00 | 91 | 1015.4 |
| 20260506043506 | 54 | 154 | 0.0 | 0.9 | 0.00 | 0.00 | 0.00 | 92 | 1015.4 |
| 20260506043024 | 54 | 146 | 0.0 | 0.9 | 0.00 | 0.00 | 0.00 | 91 | 1015.3 |
| 20260506042506 | 54 | 123 | 0.0 | 0.9 | 0.00 | 0.00 | 0.00 | 91 | 1015.3 |
| 20260506042007 | 55 | 219 | 0.0 | 0.0 | 0.00 | 0.00 | 0.00 | 91 | 1015.2 |
| 20260506041524 | 55 | 219 | 0.0 | 0.0 | 0.00 | 0.00 | 0.00 | 91 | 1015.2 |
| 20260506041007 | 55 | 219 | 0.0 | 0.0 | 0.00 | 0.00 | 0.00 | 91 | 1015.2 |
| 20260506040505 | 55 | 219 | 0.0 | 0.0 | 0.00 | 0.00 | 0.00 | 90 | 1015.2 |
| 20260506040020 | 55 | 219 | 0.0 | 0.0 | 0.00 | 0.00 | 0.00 | 90 | 1015.1 |
| 20260506035505 | 55 | 219 | 0.0 | 0.0 | 0.00 | 0.00 | 0.00 | 90 | 1015.2 |
| 20260506035010 | 55 | 219 | 0.0 | 0.0 | 0.00 | 0.00 | 0.00 | 90 | 1015.1 |
| 20260506034537 | 56 | 219 | 0.0 | 0.9 | 0.00 | 0.00 | 0.00 | 90 | 1015.0 |
| 20260506034008 | 56 | 11 | 0.0 | 1.7 | 0.00 | 0.00 | 0.00 | 90 | 1015.1 |
| 20260506033509 | 56 | 32 | 0.0 | 1.7 | 0.00 | 0.00 | 0.00 | 90 | 1015.1 |
| 20260506033012 | 56 | 32 | 0.0 | 1.7 | 0.00 | 0.00 | 0.00 | 90 | 1015.0 |
| 20260506032507 | 56 | 32 | 0.9 | 1.7 | 0.00 | 0.00 | 0.00 | 90 | 1015.0 |
| 20260506032010 | 56 | 33 | 0.0 | 2.6 | 0.00 | 0.00 | 0.00 | 89 | 1015.0 |
| 20260506031512 | 56 | 33 | 0.0 | 2.6 | 0.00 | 0.00 | 0.00 | 89 | 1015.0 |
| 20260506031007 | 56 | 33 | 0.0 | 2.6 | 0.00 | 0.00 | 0.00 | 89 | 1015.0 |
| 20260506030505 | 56 | 212 | 0.0 | 1.7 | 0.00 | 0.00 | 0.00 | 89 | 1015.0 |